Location: ???????
(55.5931°N, 39.3286°E)
Time: 23:01:07
(UTC+00:00)

Cosmos 1538 Rocket - Pass Details

Date: 14 April 2024
Orbit: 751 x 789 km, 74.0° (Epoch: 23 May)

Event Time Altitude Azimuth Distance (km) Brightness Sun altitude
Exits shadow 00:27:08 18° 199° (SSW) 1,857 5.5 -14.5°
Maximum altitude 00:31:10 78° 116° (ESE) 808 4.1 -14.1°
Drops below altitude 10° 00:36:31 10° 30° (NNE) 2,346 7.7 -13.5°
Sets 00:38:54 0° 29° (NNE) 3,272 8.7 -13.3°
